Regional Weather Roundup
Issued by NWS

Home | Current Version | Previous Version | Graphics & Text | Print | Product List | Glossary Off
Versions: 1 2 3 4 5 6 7 8 9 10 11 12 13 14 15 16 17 18 19 20 21 22 23 24 25 26 27 28 29 30 31 32 33 34 35 36 37 38 39 40 41 42 43 44 45 46 47 48 49 50

000
ASUS43 KLMK 031110
RWRKY
KENTUCKY REGIONAL WEATHER ROUNDUP
NATIONAL WEATHER SERVICE LOUISVILLE KY
700 AM EDT TUE MAY 03 2016

NOTE "FAIR" INDICATES FEW OR NO CLOUDS BELOW 12,000 FEET
WITH NO SIGNIFICANT WEATHER AND/OR OBSTRUCTIONS TO VISIBILITY.

KYZ001>023-026-027-061>063-070>075-031200-
WESTERN AND SOUTH CENTRAL KENTUCKY

CITY           SKY/WX    TMP DP  RH WIND       PRES   REMARKS
PADUCAH        PTCLDY    51  48  89 CALM      29.98S
HENDERSON      CLEAR     52  46  82 W3        29.96R
OWENSBORO      PTCLDY    50  50 100 W6        29.96R
HOPKINSVILLE   CLOUDY    53  50  89 N3        29.96S
BOWLING GREEN  MOCLDY    54  50  86 NW3       29.95R
GLASGOW        PTCLDY    52  52 100 CALM      29.94S
$$

KYZ024-025-028>034-038-045-046-053-031200-
NORTH CENTRAL KENTUCKY

CITY           SKY/WX    TMP DP  RH WIND       PRES   REMARKS
LOUISVILLE/SDF CLOUDY    54  48  80 NW6       29.93R
LOUISVILLE/LOU CLOUDY    54  48  80 NW7       29.94R
FORT KNOX      CLOUDY    52  48  86 NW5       29.92S
$$

KYZ035>037-039>044-047>052-055>060-089>105-031200-
NORTHEAST KENTUCKY

CITY           SKY/WX    TMP DP  RH WIND       PRES   REMARKS
LEXINGTON      CLOUDY    54  50  86 W3        29.91R
COVINGTON      CLOUDY    53  51  93 NW5       29.89S
FRANKFORT      CLOUDY    54  49  83 W3        29.90S
$$

KYZ054-064>069-076>088-106>120-031200-
SOUTHEAST KENTUCKY

CITY           SKY/WX    TMP DP  RH WIND       PRES   REMARKS
JACKSON        FOG       55  53  93 CALM      29.89S VSB 3/4
LONDON         CLOUDY    54  53  97 NW7       29.91R
SOMERSET       CLOUDY    54  52  94 CALM      29.93S
MIDDLESBORO    CLOUDY    58  57  97 CALM      29.90R
MONTICELLO     CLOUDY    56  53  90 CALM      29.94S
$$




USA.gov is the U.S. government's official web portal to all federal, state and local government web resources and services.